Location: Unspecified
(0.0000°N, 0.0000°E)
Time: 17:43:18
(UTC+00:00)

STARLINK 1046 - Pass Details

Date: 21 January 2020
Orbit: 548 x 551 km, 53.0° (Epoch: 22 January)

Event Time Altitude Azimuth Distance (km) Brightness Sun altitude
Rises 04:21:36 0° 189° (S) 2,716 7.3 -25.6°
Reaches altitude 10° 04:24:21 10° 170° (S) 1,820 6.6 -25.0°
Maximum altitude 04:27:18 19° 125° (SE) 1,347 6.4 -24.3°
Drops below altitude 10° 04:30:14 10° 79° (E) 1,813 7.0 -23.6°
Sets 04:32:58 0° 61° (ENE) 2,703 7.7 -23.0°
